FW9446 Weather Reports


time (UTC)temp
C
wind
direction
speed
KPH
gust
KPH
rain 1hr
cm
rain 24hr
cm
rain mn
cm
humidity
%
barometer
mb
20260510061059 12 0 0.0 0.0 0.00 0.00 0.00 97 1014.4
20260510060558 12 0 0.0 0.0 0.00 0.00 0.00 97 1014.4
20260510055558 13 0 0.0 0.0 0.00 0.00 0.00 97 1014.3
20260510055058 13 0 0.0 0.0 0.00 0.00 0.00 96 1014.3
20260510054601 13 0 0.0 0.0 0.00 0.00 0.00 96 1014.4
20260510054057 13 0 0.0 0.0 0.00 0.00 0.00 97 1014.6
20260510053602 13 0 0.0 0.0 0.00 0.00 0.00 97 1014.4
20260510053057 13 0 0.0 0.0 0.00 0.00 0.00 96 1014.5
20260510052558 13 0 0.0 0.0 0.00 0.00 0.00 96 1014.4
20260510052058 13 0 0.0 0.0 0.00 0.00 0.00 96 1014.5
20260510051558 13 0 0.0 0.0 0.00 0.00 0.00 96 1014.4
20260510051100 13 0 0.0 0.0 0.00 0.00 0.00 96 1014.5
20260510050557 13 0 0.0 0.0 0.00 0.00 0.00 96 1014.7
20260510050059 13 0 0.0 0.0 0.00 0.00 0.00 96 1014.6
20260510045601 13 0 0.0 0.0 0.00 0.00 0.00 96 1014.7
20260510045058 13 0 0.0 0.0 0.00 0.00 0.00 96 1014.7
20260510044611 13 0 0.0 0.0 0.00 0.00 0.00 96 1014.7
20260510044100 13 0 0.0 0.0 0.00 0.00 0.00 96 1014.8
20260510043558 13 0 0.0 0.0 0.00 0.00 0.00 96 1014.8
20260510043106 14 0 0.0 0.0 0.00 0.00 0.00 96 1014.7
20260510042558 14 0 0.0 0.0 0.00 0.00 0.00 96 1014.7
20260510042102 14 0 0.0 0.0 0.00 0.00 0.00 96 1014.8
20260510041600 14 0 0.0 0.0 0.00 0.00 0.00 95 1014.7
20260510041058 14 0 0.0 0.0 0.00 0.00 0.00 95 1014.7
20260510040558 14 0 0.0 0.0 0.00 0.00 0.00 96 1014.7
20260510040059 14 0 0.0 0.0 0.00 0.00 0.00 95 1014.6
20260510035558 14 0 0.0 0.0 0.00 0.00 0.00 95 1014.6
20260510035058 15 0 0.0 0.0 0.00 0.00 0.00 95 1014.6
20260510034559 15 0 0.0 0.0 0.00 0.00 0.00 95 1014.6
20260510034058 15 0 0.0 0.0 0.00 0.00 0.00 95 1014.5
20260510033601 15 0 0.0 0.0 0.00 0.00 0.00 95 1014.5
20260510033121 15 0 0.0 0.0 0.00 0.00 0.00 95 1014.5
20260510032602 15 0 0.0 0.0 0.00 0.00 0.00 95 1014.4
20260510032058 15 0 0.0 0.0 0.00 0.00 0.00 94 1014.5
20260510031630 15 0 0.0 0.0 0.00 0.00 0.00 94 1014.4
20260510031100 15 0 0.0 0.0 0.00 0.00 0.00 94 1014.5
20260510030557 15 0 0.0 0.0 0.00 0.00 0.00 94 1014.4
20260510025558 15 0 0.0 0.0 0.00 0.00 0.00 94 1014.3
20260510025058 16 0 0.0 0.0 0.00 0.00 0.00 93 1014.3
20260510024557 16 0 0.0 0.0 0.00 0.00 0.00 93 1014.3
20260510024101 16 0 0.0 0.0 0.00 0.00 0.00 93 1014.1
20260510023558 16 0 0.0 0.0 0.00 0.00 0.00 93 1014.1
20260510023059 16 0 0.0 0.0 0.00 0.00 0.00 93 1014.1
20260510022558 16 0 0.0 0.0 0.00 0.00 0.00 92 1014.0
20260510022058 16 0 0.0 0.0 0.00 0.00 0.00 92 1014.0
20260510021557 16 0 0.0 0.0 0.00 0.00 0.00 92 1014.1
20260510021100 16 0 0.0 0.0 0.00 0.00 0.00 92 1014.0
20260510020558 16 0 0.0 0.0 0.00 0.00 0.00 91 1013.9
20260510020056 16 0 0.0 0.0 0.00 0.00 0.00 91 1013.8
20260510015600 16 0 0.0 0.0 0.00 0.00 0.00 91 1013.8
20260510015059 17 0 0.0 0.0 0.00 0.00 0.00 90 1013.7
20260510014608 17 0 0.0 0.0 0.00 0.00 0.00 90 1013.7
20260510014058 17 0 0.0 0.0 0.00 0.00 0.00 90 1013.6
20260510013559 17 0 0.0 0.0 0.00 0.00 0.00 89 1013.6
20260510013058 17 0 0.0 0.0 0.00 0.00 0.00 89 1013.5
20260510012558 17 0 0.0 0.0 0.00 0.00 0.00 88 1013.5
20260510012059 17 0 0.0 0.0 0.00 0.00 0.00 88 1013.4
20260510011601 18 0 0.0 0.0 0.00 0.00 0.00 87 1013.2
20260510011101 18 0 0.0 0.0 0.00 0.00 0.00 87 1013.2
20260510010558 18 0 0.0 0.0 0.00 0.00 0.00 86 1013.1
20260510005558 18 0 0.0 0.0 0.00 0.00 0.00 86 1012.9
20260510005057 19 0 0.0 0.0 0.00 0.00 0.00 85 1012.8
20260510004559 19 0 0.0 0.0 0.00 0.00 0.00 85 1012.8
20260510004058 20 0 0.0 0.0 0.00 0.00 0.00 85 1012.8
20260510003558 20 0 0.0 0.0 0.00 0.00 0.00 84 1012.7
20260510003103 20 0 0.0 0.0 0.00 0.00 0.00 84 1012.5
20260510002558 20 0 0.0 0.0 0.00 0.00 0.00 84 1012.5
20260510002057 20 0 0.0 1.6 0.00 0.00 0.00 84 1012.4
20260510001557 20 0 0.0 8.0 0.00 0.00 0.00 83 1012.3
20260510001058 20 0 0.0 8.0 0.00 0.00 0.00 82 1012.1
20260510000601 20 148 0.0 6.4 0.00 0.00 0.00 79 1012.1
20260510000100 21 0 0.0 1.6 0.00 0.00 0.00 83 1012.0
20260509235600 21 0 0.0 1.6 0.00 0.00 0.00 83 1012.0
20260509235058 21 0 0.0 1.6 0.00 0.00 0.00 82 1012.2
20260509234611 21 0 0.0 1.6 0.00 0.00 0.00 82 1012.1
20260509234057 21 0 0.0 0.0 0.00 0.00 0.00 81 1012.1
20260509233601 21 0 0.0 1.6 0.00 0.00 0.00 80 1012.0
20260509233056 21 0 0.0 1.6 0.00 0.00 0.00 81 1011.8
20260509232558 21 0 0.0 3.2 0.00 0.00 0.00 80 1011.9
20260509232058 21 0 0.0 3.2 0.00 0.00 0.00 80 1011.7
20260509231557 21 200 0.0 6.4 0.00 0.00 0.00 80 1011.7
20260509231057 21 0 0.0 6.4 0.00 0.00 0.00 79 1011.8
20260509230558 21 0 0.0 8.0 0.00 0.00 0.00 80 1011.7
20260509230106 21 277 0.0 8.0 0.00 0.00 0.00 78 1011.7
20260509225557 22 240 0.0 6.4 0.00 0.00 0.00 78 1011.7
20260509225057 22 0 1.6 6.4 0.00 0.00 0.00 78 1011.7
20260509224557 22 0 0.0 6.4 0.00 0.00 0.00 77 1011.7
20260509224058 22 250 0.0 6.4 0.00 0.00 0.00 77 1011.7
20260509223558 22 0 0.0 6.4 0.00 0.00 0.00 77 1011.7
20260509223100 22 230 1.6 8.0 0.00 0.00 0.00 76 1011.7
20260509222559 22 0 0.0 8.0 0.00 0.00 0.00 76 1011.6
20260509222057 22 249 0.0 4.8 0.00 0.00 0.00 75 1011.5
20260509221558 23 0 0.0 4.8 0.00 0.00 0.00 76 1011.5
20260509221059 23 151 0.0 6.4 0.00 0.00 0.00 77 1011.4
20260509220557 23 0 1.6 6.4 0.00 0.00 0.00 74 1011.3
20260509220103 23 229 0.0 6.4 0.00 0.00 0.00 75 1011.2
20260509215558 23 0 1.6 6.4 0.00 0.00 0.00 75 1011.2
20260509215058 23 0 0.0 8.0 0.00 0.00 0.00 74 1011.2
20260509214558 23 0 1.6 8.0 0.00 0.00 0.00 73 1011.2
20260509214058 23 200 1.6 9.7 0.00 0.00 0.00 74 1011.2
20260509213558 23 246 0.0 9.7 0.00 0.00 0.00 73 1011.3
20260509213106 23 242 0.0 8.0 0.00 0.00 0.00 73 1011.3
20260509212557 23 0 0.0 8.0 0.00 0.00 0.00 73 1011.3
20260509212057 23 69 0.0 6.4 0.00 0.00 0.00 73 1011.3
20260509211604 23 0 0.0 6.4 0.00 0.00 0.00 73 1011.4
20260509211057 23 0 1.6 6.4 0.00 0.00 0.00 73 1011.3
20260509210558 23 312 0.0 4.8 0.00 0.00 0.00 70 1011.4
20260509205559 23 0 0.0 6.4 0.00 0.00 0.00 68 1011.3
20260509205101 24 352 0.0 4.8 0.00 0.00 0.00 71 1011.3
20260509204604 23 0 0.0 6.4 0.00 0.00 0.00 69 1011.3
20260509204058 23 307 0.0 6.4 0.00 0.00 0.00 71 1011.2
20260509203557 23 0 0.0 4.8 0.00 0.00 0.00 71 1011.1
20260509203101 23 0 0.0 4.8 0.00 0.00 0.00 69 1010.8
20260509202558 23 0 0.0 4.8 0.00 0.00 0.00 72 1011.0
20260509202058 23 0 0.0 1.6 0.00 0.00 0.00 72 1010.8
20260509201601 23 0 0.0 4.8 0.00 0.00 0.00 72 1010.9
20260509201057 23 0 0.0 4.8 0.00 0.00 0.00 68 1010.9
20260509200557 23 0 0.0 1.6 0.00 0.00 0.00 71 1011.0
20260509200057 23 0 0.0 8.0 0.00 0.00 0.00 72 1010.9
20260509195558 23 0 0.0 8.0 0.00 0.00 0.00 68 1011.1
20260509195057 24 153 0.0 6.4 0.00 0.00 0.00 64 1011.2
20260509194558 24 0 0.0 6.4 0.00 0.00 0.00 68 1011.3
20260509194101 24 210 0.0 3.2 0.00 0.00 0.00 66 1011.3
20260509193557 23 322 0.0 9.7 0.00 0.00 0.00 70 1011.3
20260509193100 23 0 0.0 9.7 0.00 0.00 0.00 65 1011.4
20260509192557 23 174 0.0 8.0 0.00 0.00 0.00 67 1011.4
20260509192057 23 303 1.6 9.7 0.00 0.00 0.00 65 1011.5
20260509191609 23 0 1.6 9.7 0.00 0.00 0.00 65 1011.5
20260509191100 23 123 0.0 8.0 0.00 0.00 0.00 70 1011.5
20260509190557 23 130 1.6 8.0 0.00 0.00 0.00 65 1011.5
20260509190106 23 83 0.0 8.0 0.00 0.00 0.00 66 1011.6
20260509185558 23 0 1.6 8.0 0.00 0.00 0.00 63 1011.7
20260509185058 23 315 0.0 9.7 0.00 0.00 0.00 66 1011.8
20260509184558 23 0 3.2 9.7 0.00 0.00 0.00 63 1011.8
20260509184058 23 0 1.6 9.7 0.00 0.00 0.00 67 1011.9
20260509183557 23 80 0.0 12.9 0.00 0.00 0.00 67 1011.8
20260509183057 23 0 1.6 12.9 0.00 0.00 0.00 64 1011.7
20260509182559 23 352 3.2 12.9 0.00 0.00 0.00 62 1011.8
20260509182057 23 167 1.6 8.0 0.00 0.00 0.00 64 1011.9
20260509181604 23 0 0.0 12.9 0.00 0.00 0.00 65 1011.9
20260509181058 23 0 0.0 16.1 0.00 0.00 0.00 65 1011.8
20260509180558 23 209 4.8 16.1 0.00 0.00 0.00 65 1011.8
20260509180100 23 345 1.6 8.0 0.00 0.00 0.00 64 1011.7
20260509175558 23 0 0.0 4.8 0.00 0.00 0.00 69 1011.7
20260509175058 23 166 0.0 6.4 0.00 0.00 0.00 66 1011.6
20260509174604 23 0 0.0 6.4 0.00 0.00 0.00 69 1011.7
20260509174058 23 0 0.0 4.8 0.00 0.00 0.00 67 1011.5
20260509173557 23 0 0.0 4.8 0.00 0.00 0.00 66 1011.7
20260509173114 23 0 0.0 4.8 0.00 0.00 0.00 68 1012.0
20260509172557 22 146 0.0 4.8 0.00 0.00 0.00 68 1012.0
20260509172058 22 0 3.2 8.0 0.00 0.00 0.00 66 1012.2
20260509171604 22 0 0.0 12.9 0.00 0.00 0.00 68 1012.4
20260509171058 22 0 0.0 14.5 0.00 0.00 0.00 67 1012.4
20260509170600 22 190 4.8 14.5 0.00 0.00 0.00 65 1012.4
20260509170100 22 0 0.0 4.8 0.00 0.00 0.00 74 1012.5
20260509165557 22 321 0.0 6.4 0.00 0.00 0.00 71 1012.5
20260509165100 21 0 1.6 9.7 0.00 0.00 0.00 69 1012.5
20260509164557 21 0 0.0 9.7 0.00 0.00 0.00 70 1012.7
20260509164101 21 233 1.6 8.0 0.00 0.00 0.00 73 1012.6
20260509163600 21 250 1.6 8.0 0.00 0.00 0.00 71 1012.8
20260509163108 21 279 1.6 6.4 0.00 0.00 0.00 73 1012.8
20260509162558 21 0 0.0 8.0 0.00 0.00 0.00 74 1012.8
20260509162058 21 319 1.6 8.0 0.00 0.00 0.00 75 1012.8
20260509161606 20 0 0.0 8.0 0.00 0.00 0.00 74 1012.8
20260509161058 20 243 3.2 8.0 0.00 0.00 0.00 75 1012.7
20260509160557 20 240 0.0 6.4 0.00 0.00 0.00 78 1012.9
20260509160100 20 86 0.0 8.0 0.00 0.00 0.00 76 1013.0
20260509155558 20 115 1.6 8.0 0.00 0.00 0.00 75 1013.1
20260509155101 20 0 1.6 12.9 0.00 0.00 0.00 78 1013.1
20260509154607 19 0 0.0 12.9 0.00 0.00 0.00 78 1013.1
20260509154056 19 333 3.2 8.0 0.00 0.00 0.00 79 1013.2
20260509153602 19 0 1.6 9.7 0.00 0.00 0.00 79 1013.4
20260509153058 19 0 1.6 9.7 0.00 0.00 0.00 79 1013.4
20260509152600 18 157 0.0 6.4 0.00 0.00 0.00 81 1013.2
20260509152056 18 323 0.0 8.0 0.00 0.00 0.00 82 1013.3
20260509151602 18 146 0.0 8.0 0.00 0.00 0.00 83 1013.3
20260509151058 18 0 0.0 8.0 0.00 0.00 0.00 82 1013.3
20260509150557 18 316 0.0 4.8 0.00 0.00 0.00 86 1013.3
20260509150057 18 0 1.6 6.4 0.00 0.00 0.00 82 1013.2
20260509145558 17 0 1.6 6.4 0.00 0.00 0.00 84 1013.4
20260509145057 17 0 0.0 6.4 0.00 0.00 0.00 84 1013.3
20260509144611 17 0 1.6 11.3 0.00 0.00 0.00 83 1013.3
20260509144057 17 0 3.2 11.3 0.00 0.00 0.00 84 1013.4
20260509143557 17 0 0.0 8.0 0.00 0.00 0.00 84 1013.4
20260509143059 17 315 0.0 9.7 0.00 0.00 0.00 84 1013.5
20260509142611 17 251 0.0 9.7 0.00 0.00 0.00 85 1013.2
20260509142057 17 99 1.6 8.0 0.00 0.00 0.00 84 1012.9
20260509141559 17 0 0.0 6.4 0.00 0.00 0.00 85 1012.8
20260509141057 17 0 0.0 6.4 0.00 0.00 0.00 87 1012.6
20260509140556 17 151 0.0 6.4 0.00 0.00 0.00 86 1012.7
20260509140116 16 0 1.6 6.4 0.00 0.00 0.00 87 1012.6
20260509135601 16 0 0.0 3.2 0.00 0.00 0.00 88 1012.6
20260509135058 16 127 0.0 3.2 0.00 0.00 0.00 90 1012.5
20260509134558 16 0 0.0 1.6 0.00 0.00 0.00 90 1012.3
20260509134057 16 0 0.0 1.6 0.00 0.00 0.00 92 1012.5
20260509133558 15 0 0.0 1.6 0.00 0.00 0.00 92 1012.5
20260509133105 15 0 0.0 0.0 0.00 0.00 0.00 94 1012.5
20260509132558 15 0 0.0 1.6 0.00 0.00 0.00 94 1012.4
20260509132058 15 0 0.0 1.6 0.00 0.00 0.00 95 1012.5
20260509131602 15 0 0.0 1.6 0.00 0.00 0.00 95 1012.5
20260509131101 15 0 0.0 0.0 0.00 0.00 0.00 97 1012.6
20260509130557 14 0 0.0 0.0 0.00 0.00 0.00 97 1012.7
20260509130106 14 0 0.0 0.0 0.00 0.00 0.00 98 1012.8
20260509125556 13 0 0.0 0.0 0.00 0.00 0.00 98 1012.7
20260509125057 13 0 0.0 0.0 0.00 0.00 0.00 98 1012.8
20260509124606 13 0 0.0 0.0 0.00 0.00 0.00 98 1012.8
20260509124058 13 0 0.0 0.0 0.00 0.00 0.00 98 1012.8
20260509123557 13 0 0.0 0.0 0.00 0.00 0.00 98 1012.8
20260509123058 13 0 0.0 0.0 0.00 0.00 0.00 98 1012.8
20260509122556 12 0 0.0 0.0 0.00 0.00 0.00 98 1012.8
20260509122058 12 0 0.0 0.0 0.00 0.00 0.00 98 1012.7
20260509121609 12 0 0.0 0.0 0.00 0.00 0.00 98 1012.6
20260509121058 12 0 0.0 0.0 0.00 0.00 0.00 98 1012.5
20260509120558 12 0 0.0 0.0 0.00 0.00 0.00 98 1012.4
20260509120059 12 0 0.0 0.0 0.00 0.00 0.00 98 1012.5
20260509115557 12 0 0.0 0.0 0.00 0.00 0.00 98 1012.5
20260509115100 12 0 0.0 0.0 0.00 0.00 0.00 98 1012.5
20260509114559 12 0 0.0 0.0 0.00 0.00 0.00 98 1012.4
20260509114057 12 0 0.0 1.6 0.00 0.00 0.00 98 1012.4
20260509113559 12 0 0.0 1.6 0.00 0.00 0.00 98 1012.2
20260509113101 12 0 0.0 1.6 0.00 0.00 0.00 98 1012.4
20260509112601 12 0 0.0 0.0 0.00 0.00 0.00 98 1012.3
20260509112057 11 0 0.0 0.0 0.00 0.00 0.00 98 1012.2
20260509111607 11 0 0.0 0.0 0.00 0.00 0.00 98 1012.3
20260509111058 11 0 0.0 0.0 0.00 0.00 0.00 98 1012.2
20260509110557 11 0 0.0 0.0 0.00 0.00 0.00 98 1012.2
20260509110059 11 0 0.0 0.0 0.00 0.00 0.00 98 1012.1
20260509105556 11 0 0.0 0.0 0.00 0.00 0.00 98 1012.3
20260509105057 11 0 0.0 0.0 0.00 0.00 0.00 98 1012.2
20260509104559 11 0 0.0 0.0 0.00 0.00 0.00 98 1012.2
20260509104058 11 0 0.0 0.0 0.00 0.00 0.00 98 1012.2
20260509103559 11 0 0.0 0.0 0.00 0.00 0.00 98 1012.0
20260509103104 11 0 0.0 0.0 0.00 0.00 0.00 98 1012.1
20260509102559 11 0 0.0 0.0 0.00 0.00 0.00 98 1012.0
20260509102058 11 0 0.0 0.0 0.00 0.00 0.00 98 1012.0
20260509101600 11 0 0.0 0.0 0.00 0.00 0.00 98 1012.1
20260509101057 11 0 0.0 0.0 0.00 0.00 0.00 97 1012.1
20260509100557 11 0 0.0 0.0 0.00 0.00 0.00 97 1012.0
20260509100104 11 0 0.0 0.0 0.00 0.00 0.00 97 1012.1
20260509095600 11 0 0.0 0.0 0.00 0.00 0.00 97 1012.1
20260509095057 11 0 0.0 0.0 0.00 0.00 0.00 97 1012.0
20260509094559 11 0 0.0 0.0 0.00 0.00 0.00 97 1011.9
20260509094057 11 0 0.0 0.0 0.00 0.00 0.00 97 1011.9
20260509093557 11 0 0.0 0.0 0.00 0.00 0.00 97 1012.1
20260509093100 11 0 0.0 0.0 0.00 0.00 0.00 98 1012.1
20260509092556 11 0 0.0 0.0 0.00 0.00 0.00 98 1012.1
20260509092056 11 0 0.0 0.0 0.00 0.00 0.00 98 1012.0
20260509091558 10 0 0.0 0.0 0.00 0.00 0.00 98 1012.0
20260509091058 10 0 0.0 0.0 0.00 0.00 0.00 98 1012.3
20260509090557 10 0 0.0 0.0 0.00 0.00 0.00 98 1012.3
20260509090106 10 0 0.0 0.0 0.00 0.00 0.00 98 1012.6
20260509085557 10 0 0.0 0.0 0.00 0.00 0.00 98 1012.7
20260509085059 10 0 0.0 0.0 0.00 0.00 0.00 98 1012.9
20260509084603 10 0 0.0 0.0 0.00 0.00 0.00 98 1012.8
20260509084057 10 0 0.0 0.0 0.00 0.00 0.00 98 1012.8
20260509083556 10 0 0.0 0.0 0.00 0.00 0.00 98 1012.7
20260509083101 10 0 0.0 0.0 0.00 0.00 0.00 98 1012.6
20260509082556 10 0 0.0 0.0 0.00 0.00 0.00 98 1012.6
20260509082100 10 0 0.0 0.0 0.00 0.00 0.00 98 1012.7
20260509081558 9 0 0.0 0.0 0.00 0.00 0.00 97 1012.6
20260509081058 9 0 0.0 0.0 0.00 0.00 0.00 97 1012.4
20260509080557 9 0 0.0 0.0 0.00 0.00 0.00 97 1012.4
20260509075557 9 0 0.0 0.0 0.00 0.00 0.00 97 1012.4
20260509075059 9 0 0.0 0.0 0.00 0.00 0.00 97 1012.2
20260509074555 9 0 0.0 0.0 0.00 0.00 0.00 97 1012.2
20260509074058 8 0 0.0 0.0 0.00 0.00 0.00 96 1012.2
20260509073557 8 0 0.0 0.0 0.00 0.00 0.00 96 1012.2
20260509073058 9 0 0.0 0.0 0.00 0.00 0.00 96 1012.0
20260509072600 9 0 0.0 0.0 0.00 0.00 0.00 96 1012.0
20260509072057 9 0 0.0 0.0 0.00 0.00 0.00 96 1011.9
20260509071556 9 0 0.0 0.0 0.00 0.00 0.00 96 1011.9
20260509071057 9 0 0.0 0.0 0.00 0.00 0.00 96 1012.0
20260509070557 9 0 0.0 0.0 0.00 0.00 0.00 96 1012.2
20260509070057 9 0 0.0 0.0 0.00 0.00 0.00 96 1012.3
20260509065556 9 0 0.0 0.0 0.00 0.00 0.00 96 1012.4
20260509065056 9 0 0.0 0.0 0.00 0.00 0.00 96 1012.5
20260509064557 9 0 0.0 0.0 0.00 0.00 0.00 96 1012.4
20260509064058 9 0 0.0 0.0 0.00 0.00 0.00 96 1012.4
20260509063557 9 0 0.0 0.0 0.00 0.00 0.00 96 1012.4
20260509063104 9 0 0.0 0.0 0.00 0.00 0.00 96 1012.4
20260509062557 9 0 0.0 0.0 0.00 0.00 0.00 96 1012.5
20260509062057 9 0 0.0 0.0 0.00 0.00 0.00 96 1012.7
20260509061557 9 0 0.0 0.0 0.00 0.00 0.00 96 1012.6